Retour au catalogue

PELICAN-5 300C

ActifScienceSSO
NORAD 66667·PAYLOAD·🇺🇸 United States

Lancé Nov 28, 2025 depuis Vandenberg Space Force Base

Loading…

Prochains Passages (prochaines 24 heures)

TLE

FraisSource: CelesTrak SupGP

Époque: Sep 14, 2026, 20:44 UTC

1 66667C 25276B   26257.86434028  .00005751  00000+0  16433-3 0  2574
2 66667  97.3916 333.0764 0001595 113.0538 255.4669 15.36046695    18

Suivez PELICAN-5 300C en temps réel avec AllMySat

Download on the App Store